Terminal Aerodrome Forecast
Issued by NWS Lubbock, TX

Home | Current Version | Previous Version | Text Only | Print | Product List | Glossary On
Versions: 1 2 3 4 5 6 7 8 9 10 11 12 13 14
926
FTUS44 KLUB 091723
TAFLBB
TAF
KLBB 091723Z 0918/1018 28013KT P6SM SKC
     FM092300 27007KT P6SM SKC=

USA.gov is the U.S. government's official web portal to all federal, state and local government web resources and services.